Flag for Germany Weather past 2 weeks in Itzehoe, Schleswig-Holstein, Germany

Now
50 °F

Cool.


Feels Like: N/A
Forecast: 47 / 49 °F
Wind: N/A

Location: Hohn

Current Time: Dec 22, 2014 at 8:21:42 AM

Latest Report: Dec 22, 2014 at 7:20 AM


Visibility: N/A

Pressure: 29.65 "Hg

Humidity: 88%

Dew point: 46 °F

Location of ItzehoeLocation

Historic Weather in Itzehoe — Graph

°F

Itzehoe temperature yesterday

Maximum temperature yesterday: 45 °F (at 3:20 PM)
Minimum temperature yesterday: 41 °F (at 4:20 AM)
Average temperature yesterday: 43 °F

Past Weeks' High & Low Weather Summary

 TemperatureHumidityPressure
High52 °F (Dec 18, 4:20 PM)100% (Dec 7, 7:20 AM)30.27 "Hg (Dec 7, 7:20 AM)
Low32 °F (Dec 14, 5:20 AM)70% (Dec 12, 11:20 PM)29.06 "Hg (Dec 12, 1:20 PM)
Average40 °F90%29.73 "Hg
* Reported Dec 7 6:20 AM — Dec 22 6:20 AM, Itzehoe, Weather by CustomWeather, © 2014

Note: Actual official high and low records may vary slightly from our data, if they occured in-between our weather recording intervals... More about our weather records

Advertising

Itzehoe weather history for previous 24 hours

 ConditionsComfort  
Time TempWeatherWind HumidityBarometerVisibility
6:20 AM
Dec 22
48 °FCool.N/A94%29.68 "HgN/A
5:20 AM46 °FCool.N/A100%29.68 "HgN/A
10:20 PM
Dec 21
43 °FQuite cool.N/A93%29.83 "Hg23 mi
9:20 PM43 °FLight rain. Passing clouds.N/A93%29.86 "HgN/A
8:20 PM43 °FQuite cool.N/A93%29.86 "HgN/A
7:20 PM45 °FLight rain. Passing clouds.N/A87%29.89 "HgN/A
6:20 PM43 °FPassing clouds.22 mph93%29.92 "HgN/A
5:20 PM45 °FPassing clouds.22 mph87%29.95 "HgN/A
4:20 PM45 °FPassing clouds.23 mph87%29.98 "HgN/A
3:20 PM45 °FPartly sunny.22 mph81%30.01 "HgN/A
2:20 PM41 °FPartly sunny.20 mph87%30.04 "HgN/A
1:20 PM41 °FPartly sunny.16 mph87%30.07 "HgN/A
12:20 PM43 °FPartly sunny.20 mph81%30.09 "Hg5 mi
11:20 AM43 °FBroken clouds.17 mph81%30.12 "HgN/A
10:20 AM43 °FBroken clouds.17 mph81%30.12 "HgN/A
9:20 AM43 °FPartly sunny.12 mph81%30.12 "HgN/A
8:20 AM41 °FSprinkles. Passing clouds.12 mph81%30.12 "HgN/A
Weather by CustomWeather, © 2014

See weather overviewHow to use our weather pages